Tracking 27107 objects as of 21-Mar-2023
HD Live streaming from Space Station
objects crossing your sky now

STARLINK-3859

Track STARLINK-3859 now!
10-day predictions
STARLINK-3859 is classified as:


NORAD ID: 52470
Int'l Code: 2022-049V
Perigee: 546.1 km
Apogee: 547.6 km
Inclination: 53.2 °
Period: 95.4 minutes
Semi major axis: 6917 km
RCS: Unknown
Launch date: May 6, 2022
Source: United States (US)
Launch site: AIR FORCE EASTERN TEST RANGE (AFETR)
Your satellite tracking list
Your tracking list is empty




NASA's NSSDC Master Catalog

Two Line Element Set (TLE):
1 52470U 22049V   23079.76303025  .00001282  00000-0  98575-4 0  9993
2 52470  53.2134 249.5474 0001110  78.6671 281.4446 15.08844527 48466
Source of the keplerian elements: AFSPC